Location: Emory University Observatory
(33.7903°N, 84.3267°W)
Time: 02:36:11
(UTC-04:00)

OTV 5 (USA 277) - Pass Details

Date: 10 October 2017
Orbit: 404 x 417 km, 43.0° (Epoch: 07 September)

Event Time Altitude Azimuth Distance (km) Brightness Sun altitude
Rises 21:17:58 0° 276° (W) 2,349 ? -27.5°
Reaches altitude 10° 21:20:23 10° 292° (WNW) 1,487 ? -28.0°
Enters shadow 21:21:37 17° 309° (NW) 1,137 ? -28.2°
